Location: Unspecified
(0.0000°N, 0.0000°E)
Time: 18:59:22
(UTC+00:00)

Vanguard 2 Rocket - Pass Details

Date: 23 January 2020
Orbit: 554 x 3327 km, 32.9° (Epoch: 20 February)

Event Time Altitude Azimuth Distance (km) Brightness Sun altitude
Rises 02:49:46 0° 264° (W) 3,071 - -46.6°
Reaches altitude 10° 02:53:10 10° 287° (WNW) 1,929 - -45.9°
Maximum altitude 02:55:40 15° 325° (NW) 1,527 - -45.3°
Drops below altitude 10° 02:58:03 10° 3° (N) 1,813 - -44.8°
Sets 03:01:05 0° 28° (NNE) 2,779 - -44.1°
